Simultaneous Nadir Overpasses (SNOs) Predictions

Prediction of SNOs between AQUA and GOES-15 Satellite Orbit:

Table of predicted SNOs for the next 14.0 days since TLE Epoch: 2/10/2012
Index Date Time (AQUA) AQUA Lat,Lon GOES-15 Lat,Lon Distance(km) Time Diff (sec)
1 02/11/2012 10:25:50 -0.53,-132.71 0.00,-135.14 276.46 80
2 02/11/2012 22:47:14 -0.61,-137.90 -0.00,-135.14 314.15 80
3 02/13/2012 22:35:05 0.04,-134.95 -0.00,-135.19 26.38 80
4 02/15/2012 22:22:56 0.71,-132.01 0.00,-135.22 366.11 80
5 02/16/2012 10:44:12 0.39,-137.16 -0.01,-135.25 217.86 80
6 02/18/2012 10:32:02 -0.23,-134.21 -0.01,-135.28 121.44 80
7 02/18/2012 22:53:27 -0.85,-139.41 0.01,-135.27 469.51 80
8 02/20/2012 10:19:52 -0.86,-131.25 -0.02,-135.31 460.72 80
9 02/20/2012 22:41:17 -0.22,-136.45 0.02,-135.31 130.24 80
10 02/22/2012 22:29:07 0.43,-133.50 0.02,-135.33 208.99 80
11 02/23/2012 10:50:23 0.66,-138.66 -0.02,-135.35 375.25 80




NCC Satellite Simultaneous Nadir Overpasses (SNOs) Prediction Service
